EN

Hourly Weather Toledo

Today, 13 April, Tuesday

Time Temperature Precipitation Wind Pressure Humidity
00:00 +13°C° 0 mm 2 mps 718 mmHg 39%
01:00 +13°C° 0 mm 2 mps 717 mmHg 41%
02:00 +12°C° 0 mm 2 mps 717 mmHg 43%
03:00 +12°C° 0 mm 2 mps 717 mmHg 45%
04:00 +12°C° 0 mm 2 mps 717 mmHg 50%
05:00 +12°C° 0 mm 2 mps 717 mmHg 54%
06:00 +10°C° 0 mm 2 mps 717 mmHg 69%
07:00 +12°C° 0 mm 2 mps 717 mmHg 67%
08:00 +13°C° 0 mm 2 mps 717 mmHg 66%
09:00 +15°C° 0 mm 2 mps 717 mmHg 64%
10:00 +14°C° 0.2 mm 3 mps 717 mmHg 67%
11:00 +14°C° 0.2 mm 3 mps 717 mmHg 70%
12:00 +14°C° 0.2 mm 3 mps 717 mmHg 72%
13:00 +14°C° 0.6 mm 2 mps 717 mmHg 76%
14:00 +14°C° 0.6 mm 2 mps 717 mmHg 80%
15:00 +13°C° 0.6 mm 1 mps 716 mmHg 84%
16:00 +16°C° 0 mm 1 mps 716 mmHg 64%
17:00 +18°C° 0 mm 1 mps 716 mmHg 64%
18:00 +18°C° 0 mm 1 mps 716 mmHg 65%
19:00 +16°C° 0 mm 1 mps 716 mmHg 68%
20:00 +15°C° 0 mm 1 mps 716 mmHg 72%
21:00 +13°C° 0 mm 2 mps 716 mmHg 75%
22:00 +13°C° 0 mm 2 mps 716 mmHg 77%
23:00 +13°C° 0 mm 2 mps 716 mmHg 78%

Tomorrow, 14 April, Wednesday

Time Temperature Precipitation Wind Pressure Humidity
00:00 +12°C° 0 mm 2 mps 715 mmHg 80%
01:00 +12°C° 0 mm 2 mps 715 mmHg 81%
02:00 +12°C° 0 mm 2 mps 715 mmHg 82%
03:00 +10°C° 0 mm 2 mps 714 mmHg 83%
04:00 +10°C° 0 mm 2 mps 714 mmHg 84%
05:00 +10°C° 0 mm 2 mps 715 mmHg 85%
06:00 +10°C° 0 mm 2 mps 715 mmHg 86%
07:00 +11°C° 0 mm 3 mps 715 mmHg 79%
08:00 +13°C° 0 mm 3 mps 715 mmHg 72%
09:00 +14°C° 0 mm 4 mps 715 mmHg 65%
10:00 +17°C° 0 mm 4 mps 715 mmHg 60%
11:00 +18°C° 0 mm 4 mps 714 mmHg 56%
12:00 +19°C° 0 mm 4 mps 714 mmHg 51%
13:00 +20°C° 0 mm 4 mps 713 mmHg 49%
14:00 +21°C° 0 mm 4 mps 713 mmHg 47%
15:00 +21°C° 0 mm 4 mps 712 mmHg 44%
16:00 +21°C° 0 mm 4 mps 712 mmHg 47%
17:00 +20°C° 0 mm 4 mps 712 mmHg 49%
18:00 +19°C° 0 mm 4 mps 712 mmHg 52%
19:00 +18°C° 0 mm 4 mps 712 mmHg 61%
20:00 +15°C° 0 mm 5 mps 712 mmHg 70%
21:00 +14°C° 0 mm 5 mps 712 mmHg 79%
22:00 +13°C° 0 mm 5 mps 712 mmHg 79%
23:00 +13°C° 0 mm 5 mps 712 mmHg 79%

Day after tomorrow, 15 April, Thursday

Time Temperature Precipitation Wind Pressure Humidity
00:00 +12°C° 0 mm 5 mps 712 mmHg 79%
01:00 +12°C° 0 mm 5 mps 712 mmHg 79%
02:00 +10°C° 0 mm 5 mps 712 mmHg 78%
03:00 +10°C° 0 mm 5 mps 712 mmHg 78%
04:00 +10°C° 0 mm 5 mps 712 mmHg 79%
05:00 +9°C° 0 mm 5 mps 712 mmHg 81%
06:00 +10°C° 0 mm 4 mps 713 mmHg 82%
07:00 +10°C° 0 mm 5 mps 713 mmHg 77%
08:00 +12°C° 0 mm 5 mps 713 mmHg 72%
09:00 +13°C° 0 mm 6 mps 713 mmHg 67%
10:00 +14°C° 0 mm 6 mps 713 mmHg 64%
11:00 +15°C° 0 mm 6 mps 713 mmHg 61%
12:00 +16°C° 0 mm 6 mps 713 mmHg 57%
13:00 +16°C° 0 mm 6 mps 712 mmHg 57%
14:00 +16°C° 0 mm 6 mps 712 mmHg 57%
15:00 +16°C° 0 mm 6 mps 712 mmHg 56%
16:00 +15°C° 0 mm 5 mps 712 mmHg 58%
17:00 +15°C° 0 mm 5 mps 712 mmHg 60%
18:00 +14°C° 0 mm 4 mps 712 mmHg 62%
19:00 +13°C° 0 mm 4 mps 712 mmHg 65%
20:00 +13°C° 0 mm 4 mps 713 mmHg 69%
21:00 +12°C° 0 mm 3 mps 713 mmHg 72%
22:00 +12°C° 0.1 mm 3 mps 713 mmHg 74%
23:00 +11°C° 0.1 mm 3 mps 713 mmHg 76%

16 April, Friday

Time Temperature Precipitation Wind Pressure Humidity
00:00 +12°C° 0.1 mm 2 mps 713 mmHg 78%
01:00 +12°C° 0 mm 2 mps 713 mmHg 79%
02:00 +12°C° 0 mm 2 mps 713 mmHg 80%
03:00 +11°C° 0 mm 1 mps 713 mmHg 80%
04:00 +11°C° 0 mm 1 mps 713 mmHg 80%
05:00 +11°C° 0 mm 1 mps 713 mmHg 79%
06:00 +11°C° 0 mm 1 mps 713 mmHg 79%
07:00 +12°C° 0 mm 1 mps 713 mmHg 75%
08:00 +13°C° 0 mm 1 mps 713 mmHg 71%
09:00 +15°C° 0 mm 2 mps 713 mmHg 68%
10:00 +16°C° 0.1 mm 2 mps 713 mmHg 61%
11:00 +17°C° 0.1 mm 3 mps 712 mmHg 55%
12:00 +19°C° 0.1 mm 3 mps 712 mmHg 49%
13:00 +19°C° 0 mm 4 mps 712 mmHg 45%
14:00 +19°C° 0 mm 5 mps 711 mmHg 42%
15:00 +19°C° 0 mm 6 mps 711 mmHg 39%
16:00 +17°C° 0.1 mm 7 mps 711 mmHg 37%
17:00 +16°C° 0.1 mm 7 mps 711 mmHg 36%
18:00 +15°C° 0.1 mm 8 mps 711 mmHg 34%
19:00 +12°C° 0 mm 7 mps 712 mmHg 38%
20:00 +10°C° 0 mm 7 mps 713 mmHg 42%
21:00 +8°C° 0 mm 6 mps 714 mmHg 46%
22:00 +7°C° 0 mm 6 mps 714 mmHg 46%
23:00 +6°C° 0 mm 5 mps 715 mmHg 47%

17 April, Saturday

Time Temperature Precipitation Wind Pressure Humidity
00:00 +5°C° 0 mm 4 mps 715 mmHg 48%
01:00 +4°C° 0 mm 4 mps 715 mmHg 50%
02:00 +3°C° 0 mm 3 mps 715 mmHg 52%
03:00 +3°C° 0 mm 2 mps 715 mmHg 54%
04:00 +3°C° 0 mm 2 mps 715 mmHg 57%
05:00 +3°C° 0 mm 2 mps 715 mmHg 59%
06:00 +2°C° 0 mm 2 mps 715 mmHg 62%
07:00 +4°C° 0 mm 2 mps 715 mmHg 56%
08:00 +5°C° 0 mm 3 mps 716 mmHg 50%
09:00 +8°C° 0 mm 3 mps 716 mmHg 44%
10:00 +10°C° 0 mm 4 mps 716 mmHg 40%
11:00 +12°C° 0 mm 4 mps 716 mmHg 37%
12:00 +13°C° 0 mm 4 mps 715 mmHg 33%
13:00 +16°C° 0 mm 3 mps 715 mmHg 30%
14:00 +17°C° 0 mm 3 mps 715 mmHg 28%
15:00 +18°C° 0 mm 3 mps 715 mmHg 26%
16:00 +17°C° 0 mm 4 mps 715 mmHg 29%
17:00 +15°C° 0 mm 5 mps 715 mmHg 31%
18:00 +15°C° 0 mm 5 mps 715 mmHg 34%
19:00 +13°C° 0 mm 5 mps 716 mmHg 38%
20:00 +12°C° 0 mm 4 mps 716 mmHg 42%
21:00 +10°C° 0 mm 3 mps 716 mmHg 45%
22:00 +9°C° 0 mm 3 mps 716 mmHg 48%
23:00 +8°C° 0 mm 2 mps 716 mmHg 51%

18 April, Sunday

Time Temperature Precipitation Wind Pressure Humidity
00:00 +9°C° 0 mm 1 mps 716 mmHg 53%
01:00 +8°C° 0 mm 1 mps 716 mmHg 54%
02:00 +8°C° 0 mm 1 mps 716 mmHg 55%
03:00 +8°C° 0 mm 1 mps 716 mmHg 56%
04:00 +8°C° 0 mm 1 mps 716 mmHg 57%
05:00 +8°C° 0 mm 1 mps 716 mmHg 57%
06:00 +8°C° 0 mm 1 mps 716 mmHg 58%
07:00 +10°C° 0 mm 1 mps 717 mmHg 51%
08:00 +12°C° 0 mm 1 mps 717 mmHg 45%
09:00 +14°C° 0 mm 1 mps 717 mmHg 39%
10:00 +15°C° 0 mm 1 mps 717 mmHg 36%
11:00 +18°C° 0 mm 1 mps 717 mmHg 33%
12:00 +18°C° 0 mm 2 mps 716 mmHg 30%
13:00 +19°C° 0 mm 2 mps 716 mmHg 28%
14:00 +20°C° 0 mm 2 mps 716 mmHg 27%
15:00 +21°C° 0 mm 3 mps 715 mmHg 25%
16:00 +20°C° 0 mm 3 mps 715 mmHg 29%
17:00 +20°C° 0 mm 3 mps 715 mmHg 33%
18:00 +19°C° 0 mm 3 mps 715 mmHg 37%
19:00 +17°C° 0 mm 3 mps 715 mmHg 39%
20:00 +16°C° 0 mm 3 mps 715 mmHg 42%
21:00 +14°C° 0 mm 2 mps 716 mmHg 44%
22:00 +14°C° 0 mm 2 mps 715 mmHg 46%
23:00 +13°C° 0 mm 1 mps 715 mmHg 48%
Show more

We Need Your Consent

Meteoprog and our Service Providers may store and access personal data such as cookies, device identifiers or other similar technologies on your device and process such data to personalise content and ads, as well as provide social media features and to analyse the traffic.

  • Store and/or access information on your device

    Cookies, device identifiers or other information can be stored or accessed on your device for the purposes indicated above.

  • Personalised ads and content, ad and content measurement, audience insights, and products development

    Ads and content can be personalised based on a profile. More data can be added to better personalise ads and content. Ad and content performance can be measured. Insights about the audience who saw the ads and content can be derived. Such data can be used to develop or improve user’s experience, systems and software.

By clicking ‘I Agree’ you will allow the use of indicated cookies, device identifiers, web beacons or other similar technologies. Your settings can be changed in the browser on your device.

For certain purposes, legitimate interests may be relied on, rather than consent. You can read more about this in our Privacy and Cookie Policy.